Regional Weather Roundup
Issued by NWS Jackson, KY

Home | Current Version | Previous Version | Graphics & Text | Print | Product List | Glossary On
Versions: 1 2 3 4 5 6 7 8 9 10 11 12 13 14 15 16 17 18 19 20 21 22 23 24 25 26 27 28 29 30 31 32 33 34 35 36 37 38 39 40 41 42 43 44 45 46 47 48 49 50
000
ASUS43 KJKL 292010
RWRJKL

EAST KENTUCKY HOURLY WEATHER ROUNDUP
NATIONAL WEATHER SERVICE JACKSON KY
400 PM EDT SAT AUG 29 2015

NOTE: "FAIR" INDICATES FEW OR NO CLOUDS BELOW 12,000 FEET WITH
NO SIGNIFICANT WEATHER AND/OR OBSTRUCTIONS TO VISIBILITY.

* THESE REPORTS ARE NOT UNDER NWS QUALITY CONTROL AND MAY NOT
  REPORT WEATHER SUCH AS PRECIPITATION AND FOG.

KYZ079-080-083-085-087-088-110-112-115-119-120-292100
...EASTERN KENTUCKY...

CITY           SKY/WX    TMP DP  RH WIND       PRES   REMARKS
JACKSON        PTSUNNY   82  65  56 VRB5      30.15F
LONDON         PTSUNNY   83  63  50 S8        30.14F
SOMERSET*      MOSUNNY   82  64  54 S8        30.13F
MONTICELLO*    PTSUNNY   86  70  58 VRB7      30.14F HX  90
WILLIAMSBURG*  SUNNY     82  66  57 E6        30.14F
MIDDLESBORO*   CLOUDY    83  65  52 CALM      30.15F
BLACK MTN*       N/A     73  63  68 S2          N/A
PIKEVILLE APT* SUNNY     79  64  61 SE6       30.16F
BIG SANDY*     MOCLDY    83  66  56 CALM      30.15F
MOREHEAD APT*  PTCLDY    84  64  51 S8        30.14F
$$

KYZ035-036-041-042-044-050-067-078-099-292100
...CENTRAL KENTUCKY...

CITY           SKY/WX    TMP DP  RH WIND       PRES   REMARKS
MT STERLING*   SUNNY    N/A N/A N/A W9        30.12F
FLEMING/MASON* MOSUNNY   84  66  54 SW9       30.11F
DANVILLE*      MOSUNNY   88  66  48 SW7       30.11F HX  90
RICHMOND*      PTSUNNY   86  64  48 S8        30.11F
LEXINGTON      PTSUNNY   83  66  56 SW6       30.10F
FRANKFORT      PTSUNNY   85  67  54 SW6       30.08F
$$

KYZ091>093-OHZ055-061-077-WVZ005-015-034-035-042-292100
...SOUTHERN OHIO/WEST VIRGINIA...

CITY           SKY/WX    TMP DP  RH WIND       PRES   REMARKS
COVINGTON      PTSUNNY   80  69  69 NW7       30.08F
COLUMBUS       PTSUNNY   86  62  44 SW13      30.08F
DAYTON         CLOUDY    82  67  60 W8        30.09F
WILMINGTON     MOSUNNY   84  63  49 S9        30.09F
HUNTINGTON     MOSUNNY   86  63  45 S8        30.11F
CHARLESTON     MOSUNNY   85  67  54 CALM      30.13F
PINEVILLE*     PTSUNNY   83  65  54 MISG      30.24F
BECKLEY        PTSUNNY   78  58  49 NW5       30.23F
BLUEFIELD      CLOUDY    76  61  59 VRB3      30.26F
$$

VAZ002-007-008-TNZ017-027-036-066-071-292100
...SOUTHWEST VIRGINIA/EAST TENNESSEE...

CITY           SKY/WX    TMP DP  RH WIND       PRES   REMARKS
WISE*          PTSUNNY   79  54  41 S6        30.25F
JONESVILLE*    MOCLDY    82  32  16 CALM      30.19F
ABINGDON*      PTSUNNY   80  58  48 CALM      30.22F
BRISTOL        CLOUDY    81  62  52 N3        30.19F
KNOXVILLE      PTSUNNY   90  72  55 VRB3      30.12F HX  97
OAK RIDGE      MOSUNNY   87  63  44 VRB5      30.14F
CROSSVILLE     MOSUNNY   80  65  59 S7        30.17F
NASHVILLE      LGT RAIN  78  68  71 S12       30.08F
$$

...KEY TO REMARKS...
VSB - VISIBILITY IN MILES
WCI - WIND CHILL INDEX
HX  - HEAT INDEX

$$



USA.gov is the U.S. government's official web portal to all federal, state and local government web resources and services.